GUOWANG

operational
NORAD ID: 66917 Country: PRC
LEOCIRCULAR

GUOWANGについて

説明を読み込み中...

リアルタイム位置

3D地球を読み込み中...

次回通過

高度履歴

Altitude vs Time

uPlot chart will show altitude changes over time

軌道要素

1 66917U 25285C 25341.08487440 -.00000174 00000-0 -12884-4 0 9992
2 66917 50.0016 140.3652 0009369 270.2146 89.7686 14.06462141 118
Epoch: Dec 7, 2025 • Age: 8 hours

現在のステータス

高度 880.2 km
速度 7.42 km/s
衛星直下点 -44.86°S, 148.34°E
タイプ other

大規模コンステレーション

Loading constellations...